Location: *
(46.4000°N, 12.6667°E)
Time: 01:55:49
(UTC+00:00)

ISS - Pass Details

Date: 04 December 2021
Orbit: 413 x 422 km, 51.6° (Epoch: 22 January)

Event Time Altitude Azimuth Distance (km) Brightness Sun altitude
Rises 16:50:57 0° 296° (WNW) 2,385 0.8 -14.5°
Reaches altitude 10° 16:53:05 10° 299° (WNW) 1,516 -0.3 -14.9°
Maximum altitude 16:56:29 75° 25° (NNE) 443 -3.8 -15.4°
Enters shadow 16:57:53 32° 104° (ESE) 744 -3.0 -15.7°
